Location: Tel Aviv
(32.0670°N, 34.7670°E)
Time: 12:32:48
(UTC+02:00)

S-56A Canister/Altair - All Passes

Search period start: 19 January 2022 00:00
Search period end: 29 January 2022 00:00
Orbit: 633 x 2499 km, 38.9° (Epoch: 18 January)

Date Brightness Start Highest point End Pass type
(mag) Time Alt. Az. Time Alt. Az. Time Alt. Az.
19 Jan - 07:44:00 10° SSW 07:48:27 39° SE 07:54:19 10° ENE daylight
19 Jan - 09:46:42 10° W 09:52:18 64° NNW 10:00:43 10° ENE daylight
19 Jan - 11:50:40 10° WNW 11:57:49 56° N 12:08:45 10° E daylight
19 Jan - 13:54:30 10° WNW 14:03:45 88° NNE 14:17:28 10° ESE daylight
19 Jan - 15:59:09 10° WNW 16:09:41 45° SW 16:23:15 10° SSE daylight
19 Jan - 18:09:12 10° WSW 18:15:16 14° SW 18:21:44 10° SSW visible
20 Jan - 07:11:56 10° SSW 07:16:02 31° SE 07:21:05 10° E daylight
20 Jan - 09:14:19 10° W 09:19:34 68° NNW 09:27:19 10° ENE daylight
20 Jan - 11:18:13 10° WNW 11:24:49 54° N 11:34:54 10° E daylight
20 Jan - 13:21:57 10° WNW 13:30:35 82° NNE 13:43:38 10° ESE daylight
20 Jan - 15:26:16 10° WNW 15:36:23 49° SW 15:49:57 10° SSE daylight
20 Jan - 17:34:49 10° WSW 17:42:01 17° SW 17:49:58 10° SSW visible
21 Jan - 06:39:57 10° SSW 06:43:37 24° SE 06:47:53 10° E daylight
21 Jan - 08:41:56 10° WSW 08:46:55 74° NNW 08:54:00 10° ENE daylight
21 Jan - 10:45:48 10° WNW 10:51:54 51° N 11:01:08 10° ENE daylight
21 Jan - 12:49:27 10° WNW 12:57:28 77° NNE 13:09:47 10° ESE daylight
21 Jan - 14:53:30 10° WNW 15:03:07 54° SSW 15:16:34 10° SE daylight
21 Jan - 17:00:56 10° W 17:08:47 19° SW 17:17:45 10° S daylight
22 Jan - 06:08:05 10° S 06:11:14 19° SE 06:14:39 10° E visible
22 Jan - 08:09:34 10° WSW 08:14:19 82° NNW 08:20:50 10° ENE daylight
22 Jan - 10:13:23 10° WNW 10:19:03 49° N 10:27:28 10° ENE daylight
22 Jan - 12:17:00 10° WNW 12:24:27 71° NNE 12:35:56 10° ESE daylight
22 Jan - 14:20:49 10° WNW 14:29:55 58° SSW 14:43:04 10° SE daylight
22 Jan - 16:27:24 10° W 16:35:33 22° SW 16:45:13 10° S daylight
23 Jan - 05:36:24 10° S 05:38:48 14° SE 05:41:18 10° ESE visible
23 Jan - 07:37:13 10° WSW 07:41:47 87° SSE 07:47:45 10° ENE daylight
23 Jan - 09:40:59 10° WNW 09:46:15 48° N 09:53:55 10° ENE daylight
23 Jan - 11:44:36 10° WNW 11:51:28 65° NNE 12:02:06 10° E daylight
23 Jan - 13:48:13 10° WNW 13:56:47 63° SSW 14:09:32 10° SE daylight
23 Jan - 15:54:05 10° W 16:02:20 24° SW 16:12:30 10° S daylight
24 Jan - 05:05:16 10° SSE 05:06:22 11° SE 05:07:28 10° ESE visible
24 Jan - 07:04:51 10° WSW 07:09:18 74° SSE 07:14:47 10° ENE daylight
24 Jan - 09:08:34 10° W 09:13:31 47° N 09:20:30 10° ENE daylight
24 Jan - 11:12:13 10° WNW 11:18:34 60° NNE 11:28:19 10° E daylight
24 Jan - 13:15:41 10° WNW 13:23:42 69° SSW 13:35:56 10° SE daylight
24 Jan - 15:20:59 10° W 15:29:09 27° SW 15:39:36 10° SSE daylight
25 Jan - 06:32:30 10° SW 06:36:51 61° SSE 06:41:53 10° ENE daylight
25 Jan - 08:36:09 10° W 08:40:50 47° N 08:47:13 10° ENE daylight
25 Jan - 10:39:52 10° WNW 10:45:45 55° NNE 10:54:37 10° E daylight
25 Jan - 12:43:12 10° WNW 12:50:43 75° SSW 13:02:19 10° SE daylight
25 Jan - 14:48:01 10° W 14:56:00 30° SW 15:06:35 10° SSE daylight
26 Jan - 06:00:08 10° SW 06:04:25 49° SSE 06:09:04 10° ENE visible
26 Jan - 08:03:42 10° W 08:08:12 49° N 08:14:03 10° ENE daylight
26 Jan - 10:07:31 10° WNW 10:12:58 51° NNE 10:20:59 10° E daylight
26 Jan - 12:10:47 10° WNW 12:17:47 81° SSW 12:28:41 10° ESE daylight
26 Jan - 14:15:11 10° W 14:22:54 32° SW 14:33:28 10° SSE daylight
27 Jan - 05:27:46 10° SW 05:32:00 40° SSE 05:36:18 10° ENE visible
27 Jan - 07:31:13 10° W 07:35:37 51° NNW 07:41:03 10° ENE daylight
27 Jan - 09:35:10 10° WNW 09:40:14 46° N 09:47:27 10° E daylight
27 Jan - 11:38:24 10° WNW 11:44:55 88° SSW 11:55:05 10° ESE daylight
27 Jan - 13:42:28 10° W 13:49:52 35° SW 14:00:16 10° SSE daylight
28 Jan - 04:55:24 10° SSW 04:59:34 33° SSE 05:03:35 10° E visible
28 Jan - 06:58:42 10° W 07:03:04 55° NNW 07:08:09 10° ENE daylight
28 Jan - 09:02:48 10° WNW 09:07:33 43° N 09:14:03 10° ENE daylight
28 Jan - 11:06:02 10° WNW 11:12:07 84° NNE 11:21:30 10° ESE daylight
28 Jan - 13:09:50 10° W 13:16:53 38° SSW 13:27:02 10° SSE daylight
28 Jan - 15:20:39 10° SW 15:22:11 10° SW 15:23:47 10° SSW daylight
